Regional Weather Roundup
Issued by NWS

Home | Current Version | Previous Version | Text Only | Print | Product List | Glossary On
Versions: 1 2 3 4 5 6 7 8 9 10 11 12 13 14 15 16 17 18 19 20 21 22 23 24 25 26 27 28 29 30 31 32 33 34 35 36 37 38 39 40 41 42 43 44 45 46 47 48 49 50
000
ASCA42 TJSJ 170110
RWRPR
PUERTO RICO/U.S. VIRGIN ISLANDS HOURLY WEATHER ROUNDUP
NATIONAL WEATHER SERVICE SAN JUAN PR
900 PM AST SAT NOV 16 2019

PRZ001>002-007>008-010-170200-
PUERTO RICO

CITY           SKY/WX    TMP DP  RH WIND       PRES   REMARKS
SAN JUAN LMM   PTCLDY    82  73  74 E5        29.84R
AGUADILLA      PTCLDY    77  72  83 E3        29.85S
CEIBA          PTCLDY    79  73  83 N3        29.85R
$$

VIZ001>002-170200-
U.S. VIRGIN ISLANDS

CITY           SKY/WX    TMP DP  RH WIND       PRES   REMARKS
CHARLOTTE AMA  CLEAR     81  72  74 NE3       29.82R
CHRISTIANSTED  CLEAR     79  73  83 N6        29.83R
$$

HOURLY WEATHER ROUNDUP FOR THE NEWS MEDIA

CITY           SKY/WX    TMP DP  RH WIND       PRES   REMARKS
ORLANDO        CLOUDY    54  48  80 NW14      29.93R
NEW YORK       FAIR      34   5  29 NE10      30.47S WCI  26
NEWARK         FAIR      33  10  38 N17       30.47S WCI  22
CHICAGO        FAIR      32  27  81 E6        30.25F WCI  26
HARTFORD       FAIR      28   2  32 N5        30.49R WCI  23
BOSTON         FAIR      31  -2  24 NW12      30.52R WCI  22
DALLAS         MOCLDY    56  33  42 SE6       30.09F
PHILADELPHIA   FAIR      36   5  27 NE16      30.42F WCI  26
LOS ANGELES    CLEAR     66  59  78 W7        29.95R
WASHINGTON DC  FAIR      35   9  33 NE8       30.37S WCI  29


USA.gov is the U.S. government's official web portal to all federal, state and local government web resources and services.